Weather History for Drummond Island, MI

Change the Weather History Date:

Monday, March 25, 2013

  Actual Average (KCIU) Record (KCIU)
Temperature  
Mean Temperature 33 °F -  
Max Temperature 39 °F 41 °F 49 °F (1981)
Min Temperature 27 °F 18 °F -13 °F (1983)
Degree Days  
Heating Degree Days 32    
Moisture  
Dew Point 25 °F    
Average Humidity 71    
Maximum Humidity 83    
Minimum Humidity 50    
Precipitation  
Precipitation 0.00 in - - ()
Sea Level Pressure  
Sea Level Pressure 29.86 in    
Wind  
Wind Speed 5 mph (North)    
Max Wind Speed 9 mph    
Max Gust Speed 17 mph    
Visibility 10 miles    
Events      
Averages and records for this station are not official NWS values.
T = Trace of Precipitation, MM = Missing Value Source: NWS Daily Summary

Daily Weather History Graph

Daily Weather History Graph

Search for Another Location

Airport:

Trip Planner

Search our weather history database for the weather conditions in past years. The results will help you decide how hot, cold, wet, or windy it might be!

Date:

Astronomy

Mar. 25, 2013 Rise Set
Actual Time 7:27 AM EDT 7:54 PM EDT
Civil Twilight 6:57 AM EDT 8:24 PM EDT
Nautical Twilight 6:22 AM EDT 9:00 PM EDT
Astronomical Twilight 5:46 AM EDT 9:36 PM EDT
Moon 6:22 PM EDT (3/25) 6:15 AM EDT (3/25)
Length of Visible Light 13h 26m
Length of Day
12h 26m
Waxing Gibbous, 96% of the Moon is Illuminated
Mar 25
Waxing Gibbous
Mar 27
Full
Apr 3
Last Quarter
Apr 10
New
Apr 18
First Quarter

Hourly Weather History & Observations

Time (EDT) Temp. Windchill Dew Point Humidity Pressure Visibility Wind Dir Wind Speed Gust Speed Precip Events Conditions
12:17 AM 31.5 °F 26.8 °F 22.6 °F 70% 29.87 in 10.0 mi ENE 4.6 mph - N/A   Overcast
12:36 AM 31.5 °F 26.8 °F 22.8 °F 70% 29.87 in 10.0 mi ENE 4.6 mph - N/A   Overcast
12:56 AM 31.5 °F 25.8 °F 23.0 °F 71% 29.87 in 10.0 mi NE 5.8 mph - N/A   Overcast
1:17 AM 31.1 °F 23.7 °F 23.2 °F 72% 29.87 in 10.0 mi NE 8.1 mph - N/A   Overcast
1:36 AM 31.1 °F 24.5 °F 23.5 °F 74% 29.87 in 10.0 mi NE 6.9 mph - N/A   Overcast
1:57 AM 30.9 °F 25.2 °F 23.4 °F 74% 29.87 in 10.0 mi NNE 5.8 mph - N/A   Overcast
2:17 AM 30.7 °F 26.0 °F 23.4 °F 74% 29.87 in 10.0 mi NNE 4.6 mph - N/A   Overcast
2:36 AM 30.6 °F 27.1 °F 23.0 °F 74% 29.87 in 10.0 mi NNE 3.5 mph - N/A   Overcast
2:57 AM 30.2 °F 24.3 °F 23.0 °F 75% 29.86 in 10.0 mi North 5.8 mph - N/A   Overcast
3:17 AM 30.0 °F 25.2 °F 23.0 °F 75% 29.86 in 10.0 mi North 4.6 mph - N/A   Overcast
3:36 AM 29.7 °F 26.1 °F 23.0 °F 76% 29.86 in 10.0 mi NNE 3.5 mph - N/A   Mostly Cloudy
3:57 AM 29.3 °F 24.3 °F 22.8 °F 77% 29.85 in 10.0 mi NNE 4.6 mph - N/A   Overcast
4:17 AM 29.3 °F 24.3 °F 22.8 °F 77% 29.85 in 10.0 mi NNE 4.6 mph - N/A   Mostly Cloudy
4:36 AM 29.3 °F 24.3 °F 23.0 °F 77% 29.85 in 10.0 mi NNE 4.6 mph - N/A   Overcast
4:57 AM 29.1 °F 24.1 °F 23.0 °F 78% 29.84 in 10.0 mi NNE 4.6 mph - N/A   Overcast
5:17 AM 28.2 °F 24.4 °F 22.5 °F 79% 29.84 in 10.0 mi North 3.5 mph - N/A   Mostly Cloudy
5:36 AM 28.2 °F 24.4 °F 22.8 °F 80% 29.84 in 10.0 mi NNE 3.5 mph - N/A   Overcast
5:57 AM 28.4 °F 23.3 °F 22.6 °F 79% 29.84 in 10.0 mi North 4.6 mph - N/A   Overcast
6:16 AM 27.5 °F 21.1 °F 22.1 °F 80% 29.84 in 10.0 mi North 5.8 mph - N/A   Scattered Clouds
6:37 AM 27.1 °F 23.2 °F 22.5 °F 83% 29.84 in 10.0 mi North 3.5 mph - N/A   Mostly Cloudy
6:56 AM 27.5 °F 23.6 °F 22.6 °F 82% 29.84 in 10.0 mi North 3.5 mph - N/A   Overcast
7:16 AM 27.7 °F 22.4 °F 23.0 °F 83% 29.84 in 10.0 mi North 4.6 mph - N/A   Overcast
7:37 AM 28.0 °F 22.8 °F 23.0 °F 81% 29.84 in 10.0 mi North 4.6 mph - N/A   Overcast
7:56 AM 28.0 °F 22.8 °F 23.0 °F 81% 29.84 in 10.0 mi North 4.6 mph - N/A   Overcast
8:17 AM 28.4 °F 21.2 °F 23.0 °F 80% 29.84 in 10.0 mi North 6.9 mph - N/A   Overcast
8:37 AM 28.9 °F 21.1 °F 23.5 °F 80% 29.84 in 10.0 mi North 8.1 mph - N/A   Overcast
8:56 AM 28.9 °F 21.1 °F 23.5 °F 80% 29.84 in 10.0 mi North 8.1 mph - N/A   Overcast
9:17 AM 29.5 °F 22.5 °F 23.9 °F 80% 29.84 in 10.0 mi North 6.9 mph - N/A   Overcast
9:37 AM 30.2 °F 24.3 °F 24.3 °F 79% 29.84 in 10.0 mi North 5.8 mph - N/A   Overcast
9:56 AM 30.6 °F 23.1 °F 24.4 °F 78% 29.84 in 10.0 mi North 8.1 mph - N/A   Overcast
10:17 AM 31.3 °F 23.9 °F 24.8 °F 77% 29.85 in 10.0 mi North 8.1 mph - N/A   Overcast
10:37 AM 32.0 °F 26.4 °F 24.8 °F 75% 29.85 in 10.0 mi North 5.8 mph - N/A   Overcast
10:56 AM 32.0 °F 25.6 °F 25.0 °F 75% 29.85 in 10.0 mi North 6.9 mph - N/A   Overcast
11:17 AM 33.1 °F 27.7 °F 25.2 °F 73% 29.85 in 10.0 mi North 5.8 mph - N/A   Overcast
11:36 AM 33.4 °F 27.3 °F 25.3 °F 72% 29.85 in 10.0 mi North 6.9 mph - N/A   Overcast
11:57 AM 34.0 °F 28.8 °F 24.8 °F 69% 29.85 in 10.0 mi NNE 5.8 mph - N/A   Overcast
12:17 PM 34.7 °F 28.8 °F 24.8 °F 67% 29.85 in 10.0 mi North 6.9 mph - N/A   Overcast
12:36 PM 34.7 °F 27.5 °F 24.8 °F 67% 29.85 in 10.0 mi North 9.2 mph - N/A   Overcast
12:57 PM 35.6 °F 29.2 °F 24.8 °F 65% 29.85 in 10.0 mi North 8.1 mph - N/A   Overcast
1:16 PM 36.3 °F 30.1 °F 24.4 °F 62% 29.85 in 10.0 mi North 8.1 mph - N/A   Overcast
1:37 PM 37.2 °F 32.6 °F 24.8 °F 61% 29.84 in 10.0 mi NNW 5.8 mph - N/A   Overcast
1:57 PM 37.6 °F 33.1 °F 24.3 °F 59% 29.84 in 10.0 mi North 5.8 mph - N/A   Overcast
2:16 PM 38.8 °F 35.4 °F 21.7 °F 50% 29.83 in 10.0 mi North 4.6 mph - N/A   Overcast
2:37 PM 38.8 °F 32.6 °F 22.5 °F 52% 29.83 in 10.0 mi North 9.2 mph 17.3 mph N/A   Overcast
2:57 PM 38.7 °F 35.2 °F 23.5 °F 55% 29.84 in 10.0 mi NNE 4.6 mph 16.1 mph N/A   Overcast
3:16 PM 38.1 °F 33.7 °F 24.3 °F 57% 29.83 in 10.0 mi NNW 5.8 mph - N/A   Overcast
3:37 PM 38.3 °F 34.8 °F 24.4 °F 57% 29.84 in 10.0 mi North 4.6 mph - N/A   Overcast
3:57 PM 38.3 °F 34.8 °F 25.0 °F 59% 29.84 in 10.0 mi North 4.6 mph - N/A   Overcast
4:16 PM 38.7 °F 36.3 °F 25.0 °F 58% 29.84 in 10.0 mi North 3.5 mph - N/A   Overcast
4:37 PM 39.2 °F 35.9 °F 24.4 °F 56% 29.84 in 10.0 mi North 4.6 mph - N/A   Overcast
4:56 PM 39.2 °F 35.0 °F 23.5 °F 53% 29.84 in 10.0 mi North 5.8 mph - N/A   Overcast
5:16 PM 38.8 °F 36.5 °F 23.7 °F 55% 29.84 in 10.0 mi NNW 3.5 mph - N/A   Overcast
5:37 PM 38.5 °F 33.4 °F 25.0 °F 58% 29.85 in 10.0 mi North 6.9 mph - N/A   Overcast
5:56 PM 38.5 °F 36.1 °F 25.2 °F 59% 29.85 in 10.0 mi North 3.5 mph - N/A   Overcast
6:17 PM 37.8 °F 35.3 °F 26.2 °F 63% 29.86 in 10.0 mi North 3.5 mph - N/A   Overcast
6:37 PM 37.6 °F 35.1 °F 26.2 °F 64% 29.87 in 10.0 mi North 3.5 mph - N/A   Overcast
6:56 PM 37.6 °F 34.0 °F 26.4 °F 64% 29.87 in 10.0 mi NNW 4.6 mph - N/A   Overcast
7:17 PM 38.3 °F 35.9 °F 25.7 °F 61% 29.87 in 10.0 mi NNW 3.5 mph - N/A   Overcast
7:37 PM 37.4 °F 32.8 °F 26.4 °F 65% 29.88 in 10.0 mi North 5.8 mph - N/A   Overcast
7:56 PM 36.5 °F - 27.3 °F 69% 29.89 in 10.0 mi Calm Calm - N/A   Overcast
8:17 PM 37.2 °F 32.6 °F 26.4 °F 65% 29.90 in 10.0 mi NNW 5.8 mph - N/A   Overcast
8:37 PM 37.0 °F 31.0 °F 26.4 °F 65% 29.90 in 10.0 mi North 8.1 mph - N/A   Overcast
8:56 PM 35.8 °F 30.9 °F 28.4 °F 75% 29.91 in 10.0 mi North 5.8 mph - N/A   Overcast
9:17 PM 35.6 °F 31.7 °F 28.6 °F 76% 29.92 in 10.0 mi North 4.6 mph - N/A   Overcast
9:36 PM 35.1 °F 32.2 °F 28.8 °F 78% 29.93 in 10.0 mi North 3.5 mph - N/A   Overcast
9:56 PM 34.9 °F 30.8 °F 28.4 °F 77% 29.93 in 10.0 mi North 4.6 mph - N/A   Overcast
10:17 PM 34.3 °F 31.4 °F 28.9 °F 81% 29.94 in 10.0 mi North 3.5 mph - N/A   Overcast
10:36 PM 34.2 °F 31.2 °F 28.8 °F 81% 29.94 in 10.0 mi North 3.5 mph - N/A   Overcast
10:57 PM 34.0 °F - 28.9 °F 82% 29.94 in 10.0 mi Calm Calm - N/A   Overcast
11:16 PM 34.0 °F - 28.4 °F 80% 29.94 in 10.0 mi Calm Calm - N/A   Overcast
11:37 PM 34.7 °F 31.8 °F 27.7 °F 76% 29.94 in 10.0 mi North 3.5 mph - N/A   Overcast
11:56 PM 34.9 °F 30.8 °F 27.5 °F 74% 29.95 in 10.0 mi North 4.6 mph - N/A   Overcast